Home   Weather   Aalborg   Past weeks

Flag for Denmark Past Weather in Aalborg, Denmark — Yesterday and Last 2 Weeks

Now
45 °F

Passing clouds.


Feels Like: 38 °F
Forecast: 46 / 50 °F
Wind: 14 mph from West

Location: Aalborg Airport

Current Time: Dec 8, 2016 at 11:24:03 pm

Latest Report: Dec 8, 2016 at 10:50 pm


Visibility: 4 mi

Pressure: 29.98 "Hg

Humidity: 100%

Dew Point: 45 °F

Location of AalborgLocation

Past Weather in Aalborg — Graph

°F

Aalborg Temperature Yesterday

Maximum temperature yesterday: 48 °F (at 4:57 pm)
Minimum temperature yesterday: 39 °F (at 12:20 am)
Average temperature yesterday: 43 °F

High & Low Weather Summary for the Past Weeks

 TemperatureHumidityPressure
High54 °F (Dec 8, 6:20 am)100% (Nov 24, 7:50 pm)30.51 "Hg (Nov 24, 7:50 pm)
Low27 °F (Nov 28, 5:20 am)40% (Nov 27, 12:20 pm)29.65 "Hg (Dec 1, 3:20 pm)
Average42 °F85%30.13 "Hg
* Reported Nov 23 10:20 pm — Dec 8 10:20 pm, Aalborg, Weather by CustomWeather, © 2016

Note: Actual official high and low records may vary slightly from our data, if they occured in-between our weather recording intervals... More about our weather records

Advertising

Aalborg Weather History for the Previous 24 Hours

Scroll right to see more
 ConditionsComfort  
Time TempWeatherWind HumidityBarometerVisibility
10:20 pm
Thu, Dec 8
45 °FPassing clouds.15 mph100%29.98 "Hg5 mi
9:50 pm45 °FPartly cloudy.14 mph100%29.98 "Hg5 mi
9:20 pm46 °FPartly cloudy.15 mph93%29.98 "Hg6 mi
8:50 pm45 °FPassing clouds.15 mph100%29.98 "Hg6 mi
8:20 pm46 °FClear.16 mph93%29.98 "Hg6 mi
7:50 pm46 °FClear.20 mph93%29.95 "Hg6 mi
7:20 pm45 °FClear.15 mph100%29.95 "Hg6 mi
6:50 pm45 °FClear.17 mph100%29.98 "Hg6 mi
6:20 pm45 °FClear.12 mph100%29.98 "Hg10 mi
5:50 pm46 °FClear.7 mph87%29.98 "Hg10 mi
5:20 pm46 °FClear.13 mph87%29.98 "Hg10 mi
4:50 pm46 °FClear.12 mph93%29.98 "Hg10 mi
4:20 pm48 °FClear.8 mph87%29.98 "Hg10 mi
3:50 pm50 °FClear.9 mph88%29.98 "Hg10 mi
3:20 pm50 °FSunny.16 mph88%29.95 "Hg10 mi
2:50 pm50 °FSunny.12 mph88%29.95 "Hg10 mi
2:20 pm52 °FSunny.20 mph82%29.95 "Hg10 mi
1:50 pm52 °FSunny.17 mph82%29.95 "Hg10 mi
1:20 pm54 °FSunny.22 mph77%29.95 "Hg10 mi
12:50 pm54 °FSunny.23 mph77%29.92 "Hg10 mi
12:20 pm54 °FSunny.18 mph77%29.92 "Hg10 mi
11:50 am54 °FSunny.22 mph77%29.89 "Hg10 mi
11:20 am52 °FPassing clouds.21 mph82%29.89 "HgN/A
10:50 am50 °FPassing clouds.21 mph88%29.89 "HgN/A
10:20 am48 °FSunny.20 mph94%29.89 "Hg10 mi
9:50 am52 °FSunny.20 mph82%29.89 "Hg10 mi
9:20 am52 °FPassing clouds.18 mph88%29.89 "HgN/A
8:50 am52 °FPassing clouds.18 mph88%29.89 "HgN/A
8:20 am52 °FPassing clouds.20 mph88%29.89 "HgN/A
7:50 am52 °FPassing clouds.21 mph94%29.89 "HgN/A
7:20 am52 °FPassing clouds.20 mph94%29.89 "HgN/A
6:50 am54 °FPassing clouds.21 mph88%29.89 "HgN/A
6:20 am54 °FPassing clouds.21 mph88%29.89 "HgN/A
5:50 am50 °FPassing clouds.15 mph94%29.89 "Hg4 mi
5:20 am50 °FPassing clouds.18 mph94%29.89 "Hg4 mi
4:50 am50 °FFog.21 mph94%29.89 "Hg3 mi
4:20 am50 °FFog.22 mph94%29.86 "Hg3 mi
3:50 am50 °FFog.23 mph94%29.89 "Hg3 mi
3:20 am50 °FFog.24 mph100%29.89 "Hg3 mi
2:20 am50 °FFog.22 mph94%29.89 "Hg3 mi
1:50 am50 °FFog.18 mph94%29.89 "Hg3 mi
1:20 am48 °FDrizzle. Fog.17 mph100%29.89 "Hg3 mi
12:50 am48 °FDrizzle. Fog.16 mph94%29.89 "Hg2 mi
12:20 am48 °FSprinkles. Fog.20 mph100%29.89 "Hg1 mi
11:50 pm
Wed, Dec 7
48 °FFog.20 mph100%29.92 "Hg2 mi
11:20 pm48 °FFog.17 mph100%29.92 "Hg2 mi
Weather by CustomWeather, © 2016

See weather overviewHow to use our weather pages